Regional Weather Roundup
Issued by NWS Little Rock, AR

Home | Current Version | Previous Version | Text Only | Print | Product List | Glossary On
Versions: 1 2 3 4 5 6 7 8 9 10 11 12 13 14 15 16 17 18 19 20 21 22 23 24 25 26 27 28 29 30 31 32 33 34 35 36 37 38 39 40 41 42 43 44 45 46 47 48 49 50
000
ASUS44 KLZK 201705
RWRLZK

WEATHER ROUNDUP FOR ARKANSAS
NATIONAL WEATHER SERVICE LITTLE ROCK AR
1200 PM CDT WED AUG 20 2014

NOTE: "FAIR" INDICATES FEW OR NO CLOUDS BELOW 12,000 FEET WITH NO
SIGNIFICANT WEATHER AND/OR OBSTRUCTIONS TO VISIBILITY.

ARZ001-003-010-029-201800-
NORTHWEST ARKANSAS

CITY           SKY/WX    TMP DP  RH WIND       PRES   REMARKS
FAYETTEVILLE   SUNNY     86  67  52 SW12G23   30.03R HX  89
FORT SMITH     SUNNY     90  66  45 SW9       30.00R HX  92
HARRISON       SUNNY     87  71  58 SW10      30.03F HX  93
BENTONVILLE    MOSUNNY   88  70  55 SW12      30.03S HX  92
ROGERS         MOSUNNY   88  68  51 SW8G16    30.03S HX  91
SILOAM SPGS    SUNNY     84  68  58 SW13      30.02F HX  87
HIGHFILL       MOSUNNY   86  70  58 S13       30.02S HX  90
SPRINGDALE     MOSUNNY   86  70  58 SW13      30.04S HX  90
$$

ARZ004-005-016-201800-
NORTH CENTRAL ARKANSAS

CITY           SKY/WX    TMP DP  RH WIND       PRES   REMARKS
BATESVILLE     SUNNY     93  70  46 SW12      30.00S HX  99
FLIPPIN        SUNNY     91  66  43 SW12      30.01S HX  94
MTN HOME       SUNNY     92  68  45 VRB6      30.00S HX  96
$$

ARZ040-041-201800-
WEST CENTRAL ARKANSAS

CITY           SKY/WX    TMP DP  RH WIND       PRES   REMARKS
MENA           SUNNY     86  73  66 CALM      30.06S HX  93
MOUNT IDA      SUNNY     86  71  60 VRB5      30.03R HX  91
$$

ARZ009-017-025-026-028-201800-
NORTHEAST ARKANSAS

CITY           SKY/WX    TMP DP  RH WIND       PRES   REMARKS
CORNING        LGT RAIN  91  75  59 SW8       29.99S HX 102
JONESBORO      SUNNY     91  74  57 SW9       30.00S HX 100
NEWPORT        SUNNY     92  75  57 S10       30.01S HX 102
WALNUT RIDGE   SUNNY     90  72  55 S9        29.98S HX  96
BLYTHEVILLE    SUNNY     89  78  70 SW8       30.01S HX 103
$$

ARZ022-023-033-042-044-201800-
CENTRAL ARKANSAS

CITY           SKY/WX    TMP DP  RH WIND       PRES   REMARKS
LITTLE ROCK    SUNNY     89  70  53 SW10      30.03S HX  94
N LITTLE ROCK  SUNNY     88  73  61 SW8       30.03S HX  95
JACKSONVILLE   SUNNY     89  73  59 SW9       30.03S HX  96
SEARCY           N/A     91  75  59 CALM        N/A  HX 101
HOT SPRINGS    SUNNY     87  72  60 W12       30.05R HX  93
RUSSELLVILLE   SUNNY     88  70  55 SW5       30.02S HX  93
CLINTON        FAIR      91  73  55 SW7G16    30.01F HAZE    HX 100
$$

ARZ036-201800-
EAST ARKANSAS

CITY           SKY/WX    TMP DP  RH WIND       PRES   REMARKS
WEST MEMPHIS   SUNNY     90  75  61 SW7       30.02S HX 100
$$

ARZ050-053-066-070-073-201800-
SOUTHWEST ARKANSAS

CITY           SKY/WX    TMP DP  RH WIND       PRES   REMARKS
ARKADELPHIA    FAIR      88  75  65 SW8       30.04S HX  97
CAMDEN         MOSUNNY   90  73  58 SW9       30.05S HX  98
TEXARKANA      SUNNY     85  74  69 VRB7      30.04S HX  92
EL DORADO      MOSUNNY   88  75  65 VRB6      30.05S HX  97
DE QUEEN       MOSUNNY   84  75  74 SW6       30.02R HX  92
$$

ARZ056-057-069-201800-
SOUTHEAST ARKANSAS

CITY           SKY/WX    TMP DP  RH WIND       PRES   REMARKS
PINE BLUFF     SUNNY     87  72  60 SW9       30.05S HX  93
STUTTGART      SUNNY     90  73  58 SW13      30.05R HX  98
MONTICELLO     SUNNY     87  72  60 W7        30.06S HX  93

$$





USA.gov is the U.S. government's official web portal to all federal, state and local government web resources and services.